Tracking 18942 objects as of 18-Jan-2018
HD Live streaming from Space Station
objects crossing your sky now

COSMOS 2145

Track COSMOS 2145 now!
10-day predictions
COSMOS 2145 is classified as:


NORAD ID: 21301
Int'l Code: 1991-033C
Perigee: 1,411.4 km
Apogee: 1,423.4 km
Inclination: 82.6 °
Period: 114.0 minutes
Semi major axis: 7788 km
RCS: 1.1428 m2 (large)
Launch date: May 16, 1991
Source: Commonwealth of Independent States (former USSR) (CIS)
Launch site: PLESETSK MISSILE AND SPACE COMPLEX (PKMTR)
aabbcc
Your satellite tracking list
Your tracking list is empty




NASA's NSSDC Master Catalog

Two Line Element Set (TLE):
1 21301U 91033C   18017.37820847 +.00000016 +00000-0 +27382-4 0  9992
2 21301 082.5693 113.7444 0007681 216.3022 143.7549 12.63075328229636
Source of the keplerian elements: AFSPC